ENY3719 KPNS-KMIA

Flight info

Callsign ENY3719
Flight time N/A
Altitude 33000
Route CEW DEFUN FROGZ5
Aircraft E75L/M-SDE3GILORVW/S

Departure

Time 2026-04-28 21:52
Airport Pensacola International Airport (KPNS)

Arrival

Time N/A
Airport Miami International Airport (KMIA)
Time Latitude Longitude Altitude Speed Heading
2026-04-28 21:28 30.47586 -87.19219 129 ft 0 kts 193°
2026-04-28 21:48 30.47585 -87.19220 128 ft 0 kts 193°
2026-04-28 21:48 30.47582 -87.19220 128 ft 1 kts 175°
2026-04-28 21:49 30.47587 -87.19176 128 ft 11 kts 49°
2026-04-28 21:49 30.47605 -87.19163 129 ft 0 kts 15°
2026-04-28 21:49 30.47622 -87.19158 126 ft 7 kts 15°
2026-04-28 21:50 30.47689 -87.19122 128 ft 13 kts 50°
2026-04-28 21:50 30.47789 -87.19091 127 ft 19 kts 351°
2026-04-28 21:50 30.47933 -87.19132 126 ft 23 kts 349°
2026-04-28 21:50 30.48093 -87.19169 129 ft 18 kts 344°
2026-04-28 21:51 30.48224 -87.19200 129 ft 18 kts
2026-04-28 21:51 30.48261 -87.19160 131 ft 0 kts 75°
2026-04-28 21:51 30.48265 -87.19141 129 ft 4 kts 75°
2026-04-28 21:52 30.48217 -87.19050 129 ft 44 kts 153°
2026-04-28 21:52 30.47615 -87.18867 126 ft 132 kts 167°
2026-04-28 21:52 30.46556 -87.18594 631 ft 173 kts 163°
2026-04-28 21:52 30.45414 -87.18205 1097 ft 167 kts 163°
2026-04-28 21:53 30.44233 -87.17812 1525 ft 183 kts 166°
2026-04-28 21:53 30.42944 -87.17423 1981 ft 202 kts 167°
2026-04-28 21:53 30.41535 -87.17048 1897 ft 205 kts 167°
2026-04-28 21:53 30.40166 -87.16654 1888 ft 203 kts 166°
2026-04-28 21:54 30.38914 -87.15919 1897 ft 207 kts 137°
2026-04-28 21:54 30.38277 -87.14438 1887 ft 213 kts 99°
2026-04-28 21:54 30.38306 -87.12701 1956 ft 219 kts 86°
2026-04-28 21:54 30.38667 -87.10965 2429 ft 229 kts 74°
2026-04-28 21:55 30.39301 -87.09250 3711 ft 234 kts 63°
2026-04-28 21:55 30.40500 -87.07826 4538 ft 267 kts 31°
2026-04-28 21:55 30.42247 -87.06909 5571 ft 282 kts 22°
2026-04-28 21:55 30.44025 -87.05942 6899 ft 284 kts 31°
2026-04-28 21:56 30.45637 -87.04550 7960 ft 294 kts 44°
2026-04-28 21:56 30.46867 -87.02626 9064 ft 301 kts 61°
2026-04-28 21:56 30.47783 -87.00396 10156 ft 311 kts 66°
2026-04-28 21:56 30.48647 -86.98001 10859 ft 333 kts 68°
2026-04-28 21:57 30.49524 -86.95432 11541 ft 353 kts 68°
2026-04-28 21:57 30.50481 -86.92735 12264 ft 369 kts 67°
2026-04-28 21:57 30.51486 -86.89953 13223 ft 378 kts 68°
2026-04-28 21:57 30.52469 -86.87099 14246 ft 384 kts 67°
2026-04-28 21:58 30.53496 -86.84212 15272 ft 390 kts 66°
2026-04-28 21:58 30.54539 -86.81287 16259 ft 396 kts 66°
2026-04-28 21:58 30.55586 -86.78304 17171 ft 402 kts 66°
2026-04-28 21:58 30.56654 -86.75280 18023 ft 408 kts 65°
2026-04-28 21:59 30.57751 -86.72217 18799 ft 414 kts 65°
2026-04-28 21:59 30.58891 -86.69135 19525 ft 418 kts 64°
2026-04-28 21:59 30.60060 -86.66020 20275 ft 423 kts 64°
2026-04-28 22:00 30.62452 -86.59709 21736 ft 432 kts 63°
2026-04-28 22:00 30.63687 -86.56507 22435 ft 436 kts 63°
2026-04-28 22:00 30.64943 -86.53293 23170 ft 439 kts 63°
2026-04-28 22:00 30.66214 -86.50055 23776 ft 443 kts 63°
2026-04-28 22:01 30.67513 -86.46798 24298 ft 446 kts 62°
2026-04-28 22:01 30.68825 -86.43519 24838 ft 448 kts 62°
2026-04-28 22:01 30.70145 -86.40233 25381 ft 450 kts 62°
2026-04-28 22:01 30.71480 -86.36935 26019 ft 450 kts 62°
2026-04-28 22:02 30.72811 -86.33661 26792 ft 446 kts 62°
2026-04-28 22:02 30.74138 -86.30424 27558 ft 442 kts 62°
2026-04-28 22:02 30.75464 -86.27218 28275 ft 439 kts 62°
2026-04-28 22:02 30.76794 -86.24031 28985 ft 437 kts 61°
2026-04-28 22:03 30.78128 -86.20865 29678 ft 434 kts 61°
2026-04-28 22:03 30.79462 -86.17729 30304 ft 432 kts 61°
2026-04-28 22:03 30.80771 -86.14586 30803 ft 432 kts 65°
2026-04-28 22:03 30.81519 -86.11197 31255 ft 437 kts 84°
2026-04-28 22:04 30.81540 -86.07675 31803 ft 435 kts 90°
2026-04-28 22:04 30.81437 -86.04161 32307 ft 434 kts 91°
2026-04-28 22:04 30.81334 -86.00663 32819 ft 432 kts 91°
2026-04-28 22:04 30.81237 -85.97166 33143 ft 436 kts 91°
2026-04-28 22:05 30.81130 -85.93644 33152 ft 435 kts 91°
2026-04-28 22:05 30.80915 -85.86629 33123 ft 433 kts 91°
2026-04-28 22:06 30.80703 -85.79634 33141 ft 432 kts 91°
2026-04-28 22:06 30.80490 -85.72648 33144 ft 432 kts 91°
2026-04-28 22:07 30.80274 -85.65662 33162 ft 432 kts 91°
2026-04-28 22:07 30.80055 -85.58715 33145 ft 433 kts 91°
2026-04-28 22:08 30.79830 -85.51729 33137 ft 432 kts 91°
2026-04-28 22:08 30.79603 -85.44741 33126 ft 432 kts 91°
2026-04-28 22:09 30.79372 -85.37747 33126 ft 434 kts 91°
2026-04-28 22:09 30.79136 -85.30739 33119 ft 434 kts 91°
2026-04-28 22:10 30.78854 -85.23732 33122 ft 434 kts 91°
2026-04-28 22:10 30.78631 -85.16724 33118 ft 434 kts 91°
2026-04-28 22:11 30.78394 -85.09721 33118 ft 434 kts 91°
2026-04-28 22:11 30.78148 -85.02713 33120 ft 434 kts 91°
2026-04-28 22:12 30.77897 -84.95696 33123 ft 435 kts 91°
2026-04-28 22:12 30.77641 -84.88676 33126 ft 434 kts 91°
2026-04-28 22:13 30.76370 -84.81867 33149 ft 436 kts 118°
2026-04-28 22:13 30.73236 -84.75811 33113 ft 438 kts 122°
2026-04-28 22:14 30.70060 -84.69793 33130 ft 436 kts 121°
2026-04-28 22:14 30.66904 -84.63766 33129 ft 436 kts 121°
2026-04-28 22:15 30.63754 -84.57742 33132 ft 436 kts 121°
2026-04-28 22:15 30.60602 -84.51717 33131 ft 437 kts 121°
2026-04-28 22:16 30.57448 -84.45695 33138 ft 437 kts 121°
2026-04-28 22:16 30.54294 -84.39682 33134 ft 436 kts 121°
2026-04-28 22:17 30.51135 -84.33669 33111 ft 437 kts 121°
2026-04-28 22:17 30.47970 -84.27655 33104 ft 436 kts 121°
2026-04-28 22:18 30.44817 -84.21671 33115 ft 435 kts 122°
2026-04-28 22:18 30.41658 -84.15683 33119 ft 435 kts 122°
2026-04-28 22:19 30.38479 -84.09721 33120 ft 435 kts 126°
2026-04-28 22:19 30.36466 -84.07122 33119 ft 433 kts 143°
2026-04-28 22:19 30.33955 -84.05221 33179 ft 432 kts 152°
2026-04-28 22:20 30.28715 -84.01814 33111 ft 431 kts 152°
2026-04-28 22:20 30.23501 -83.98384 33109 ft 432 kts 151°
2026-04-28 22:21 30.18284 -83.94931 33112 ft 432 kts 151°
2026-04-28 22:21 30.13072 -83.91479 33118 ft 432 kts 151°
2026-04-28 22:22 30.07885 -83.88046 33113 ft 428 kts 151°
2026-04-28 22:22 30.02717 -83.84629 33117 ft 429 kts 151°
2026-04-28 22:23 29.97543 -83.81212 33114 ft 428 kts 151°
2026-04-28 22:23 29.92369 -83.77797 33112 ft 429 kts 150°
2026-04-28 22:24 29.87195 -83.74390 33112 ft 428 kts 150°
2026-04-28 22:24 29.82020 -83.70986 33112 ft 428 kts 150°
2026-04-28 22:25 29.76841 -83.67592 33114 ft 428 kts 150°
2026-04-28 22:25 29.71658 -83.64203 33112 ft 428 kts 150°
2026-04-28 22:26 29.66476 -83.60818 33111 ft 429 kts 150°
2026-04-28 22:26 29.61284 -83.57429 33111 ft 430 kts 150°
2026-04-28 22:27 29.56958 -83.54610 33112 ft 430 kts 150°
2026-04-28 22:27 29.50927 -83.50683 33111 ft 427 kts 151°
2026-04-28 22:28 29.46599 -83.47867 33116 ft 427 kts 151°
2026-04-28 22:28 29.40588 -83.43963 33109 ft 427 kts 151°
2026-04-28 22:29 29.36254 -83.41150 33110 ft 428 kts 150°